Regional Weather Roundup
Issued by NWS

Home | Current Version | Previous Version | Graphics & Text | Print | Product List | Glossary On
Versions: 1 2 3 4 5 6 7 8 9 10 11 12 13 14 15 16 17 18 19 20 21 22 23 24 25 26 27 28 29 30 31 32 33 34 35 36 37 38 39 40 41 42 43 44 45 46 47 48 49 50
000
ASUS45 KBOU 300807
RWRCO

WEATHER ROUNDUP FOR COLORADO
NATIONAL WEATHER SERVICE DENVER/BOULDER CO
200 AM MDT MON MAR 30 2015

NOTE: "FAIR" INDICATES FEW OR NO CLOUDS BELOW 12000 FEET WITH NO
SIGNIFICANT WEATHER AND/OR OBSTRUCTIONS TO VISIBILITY.

COZ001>005-013-030-031-300900-
...NORTHWEST COLORADO...

CITY           SKY/WX    TMP DP  RH WIND       PRES   REMARKS
CRAIG          PTCLDY    27  21  78 SE3       30.26R
HAYDEN         PTCLDY    37  18  44 E8        30.25S
MEEKER         CLEAR     38  21  50 SE10      30.25F
MOUNT WERNER   NOT AVBL
STEAMBOAT SPGS PTCLDY    36  19  51 S3        30.26F
WALDEN         PTCLDY    28  18  64 SE8       30.27F WCI  20
$$

COZ006>008-011-300900-
...WEST CENTRAL VALLEYS...

CITY           SKY/WX    TMP DP  RH WIND       PRES   REMARKS
GRAND JUNCTION CLEAR     45  15  30 E8        30.16R
MONTROSE       CLEAR     44  16  32 SE10      30.24R
EAGLE          CLEAR     34  16  47 CALM      30.29S
RIFLE          CLEAR     38  16  40 CALM      30.22S
DELTA          CLEAR     42  13  31 NE7       30.21S
NUCLA          CLEAR     43  10  26 E13       30.27S
$$

COZ017>023-064>068-300900-
...SOUTHWEST COLORADO...

CITY           SKY/WX    TMP DP  RH WIND       PRES   REMARKS
DURANGO        PTCLDY    40  15  36 E3        30.26R
CORTEZ         CLEAR     38  16  40 E5        30.23F
PAGOSA SPRINGS PTCLDY    38  22  52 CALM      30.32S
TELLURIDE      NOT AVBL
WOLF CREEK PAS CLEAR     32   9  37 SW12      30.51S WCI  23
$$

COZ009-010-012-014-032>034-037-058>063-300900-
...CENTRAL COLORADO...

CITY           SKY/WX    TMP DP  RH WIND       PRES   REMARKS
ASPEN          PTCLDY    35  15  44 S8        30.29F WCI  29
BUENA VISTA    PTCLDY    31  18  58 CALM      30.32F
COPPER MTN     CLEAR     36   0  21 SW12      30.45F
BERTHOUD PASS  FAIR      28  21  74 W29G44    30.43F WCI  13
COTTONWOOD PAS PTCLDY    41   3  20 CALM      30.37F
GUNNISON       PTCLDY    30  16  55 CALM      30.36S
KREMMLING      CLEAR     28  19  69 CALM      30.31S
LEADVILLE      PTCLDY    25   7  46 CALM      30.36F
SALIDA         PTCLDY    38  23  54 CALM      30.38F
SUNLIGHT       CLEAR     39   7  26 CALM      30.44F
WILKERSON PASS PTCLDY    34   3  27 W8        30.43F WCI  27
$$

COZ069>075-300900-
...SAN LUIS VALLEY/SANGRE DE CRISTO MOUNTAINS...

CITY           SKY/WX    TMP DP  RH WIND       PRES   REMARKS
ALAMOSA        CLEAR     39  26  59 NW7       30.28R
LA VETA PASS   CLEAR     36  27  69 S7        30.38F
SAGUACHE       NOT AVBL
$$

COZ035-036-038>040-300900-
...NORTHERN COLORADO FRONT RANGE...

CITY           SKY/WX    TMP DP  RH WIND       PRES   REMARKS
DENVER INTL AP PTCLDY    46  25  43 SW7       30.14F
DMNS CITY PARK   N/A     45  28  50 S6        30.13F
AURORA         NOT AVBL
FRONT RANGE AP CLEAR     45  28  53 W6        30.14F
ERIE MUNI ARPT PTCLDY    37  29  72 CALM      30.13F
BOULDER MUN AP PTCLDY    45  27  49 SW5       30.13F
CENTENNIAL     CLEAR     44  24  45 S8        30.15F
BROOMFIELD     PTCLDY    48  25  40 CALM      30.15F
FORT COLLINS   CLEAR     43  27  52 N7        30.13F
LONGMONT       CLEAR     40  30  66 CALM      30.15F
$$

COZ041-046-047-076>085-087-088-300900-
...PIKES PEAK/PALMER DIVIDE AND SOUTHERN FOOTHILLS...

CITY           SKY/WX    TMP DP  RH WIND       PRES   REMARKS
COLO. SPRINGS  PTCLDY    36  22  56 N7        30.22F
A. F. ACADEMY  PTCLDY    31  23  71 N8        30.22F WCI  23
ELLICOTT       PTCLDY   N/A N/A N/A SE8       30.20F
FALCON         PTCLDY    36  19  51 CALM      30.24F
FORT CARSON    CLEAR     39  23  53 NW7       30.19F
LIMON          CLEAR     39  21  48 S6        30.20S
MONUMENT HILL  CLEAR     36  19  51 S13       30.21S
TRINIDAD       PTCLDY    53  27  36 S8        30.19F
$$

COZ042>045-048>051-090-091-300900-
...NORTHEAST COLORADO...

CITY           SKY/WX    TMP DP  RH WIND       PRES   REMARKS
GREELEY ARPT   CLEAR     32  16  51 CALM      30.11F
AKRON          CLEAR     45  23  42 S13       30.12F
BURLINGTON     CLEAR     43  22  43 S16       30.16F
WRAY           PTCLDY    44  22  40 SW9       30.14F
STERLING       CLEAR     41  27  56 SW8       30.09F
HOLYOKE        NOT AVBL
FORT MORGAN    CLEAR     39  17  41 S5        30.12F
$$

COZ086-089-092>099-300900-
...SOUTHEAST COLORADO...

CITY           SKY/WX    TMP DP  RH WIND       PRES   REMARKS
PUEBLO         CLEAR     43  22  43 N12       30.16F
LA JUNTA       CLEAR     53  22  29 SE16      30.14F
LAMAR          CLEAR     45  25  45 SE3       30.16F
SPRINGFIELD      N/A     42  26  53 S12       30.20F
$$



USA.gov is the U.S. government's official web portal to all federal, state and local government web resources and services.